Location: Boursonne
(49.2024°N, 3.0468°E)
Time: 23:09:57
(UTC+00:00)

USA 306 - Pass Details

Date: 03 March 2021
Orbit: 564 x 577 km, 54.0° (Epoch: 13 April)

Event Time Altitude Azimuth Distance (km) Brightness Sun altitude
Rises 19:59:14 0° 289° (WNW) 2,773 7.8 -24.2°
Reaches altitude 10° 20:01:34 10° 295° (WNW) 1,872 6.6 -24.5°
Enters shadow 20:05:20 47° 354° (N) 761 3.6 -25.1°
